Regional Weather Roundup
Issued by NWS

Home | Current Version | Previous Version | Graphics & Text | Print | Product List | Glossary On
Versions: 1 2 3 4 5 6 7 8 9 10 11 12 13 14 15 16 17 18 19 20 21 22 23 24 25 26 27 28 29 30 31 32 33 34 35 36 37 38 39 40 41 42 43 44 45 46 47 48 49 50
000
ASUS43 KDTX 240901
RWRMI
MICHIGAN HOURLY REGIONAL WEATHER ROUNDUP
NATIONAL WEATHER SERVICE DETROIT/PONTIAC MI
500 AM EDT SUN MAY 24 2015

NOTE: "FAIR" INDICATES FEW OR NO CLOUDS BELOW 12,000 FEET WITH NO
SIGNIFICANT WEATHER AND/OR OBSTRUCTION TO VISIBILITY.

MIZ047>049-052>055-059>063-066>070-074>076-081>083-241000-
SOUTHEAST LOWER MICHIGAN

CITY           SKY/WX    TMP DP  RH WIND       PRES   REMARKS
ADRIAN         CLEAR     51  46  83 CALM      30.27R
ALMA           CLEAR     51  47  86 CALM      30.23R
ANN ARBOR      CLEAR     47  45  93 SW3       30.25S
BAD AXE        CLEAR     49  38  67 CALM      30.23S
CARO           CLEAR     43  41  95 CALM      30.22S
DETROIT CITY   CLOUDY    57  43  59 CALM      30.25F
DETROIT        PTCLDY    54  47  77 CALM      30.26S
FLINT          CLOUDY    60  44  55 S6        30.24S
GROSSE ILE     MOCLDY    55  50  82 CALM      30.24S
HILLSDALE      CLEAR     56  47  71 CALM      30.26S
HOWELL         CLOUDY    60  42  50 S6        30.24R

CITY           SKY/WX    TMP DP  RH WIND       PRES   REMARKS
JACKSON        CLEAR     53  46  77 CALM      30.25S
LAMBERTVILLE   CLEAR     52  45  76 CALM      30.26S
LANSING        CLOUDY    59  45  59 S6        30.24R
LAPEER         FAIR      44  43  94 CALM      30.24S
MASON          PTCLDY    56  44  63 CALM      30.24R
MONROE         CLEAR     52  48  87 CALM      30.25R
MT. CLEMENS    MOCLDY    49  44  84 CALM      30.23S
PONTIAC        CLOUDY    56  45  66 CALM      30.24F
PORT HOPE        N/A     54  39  57 SW8       30.20F
PORT HURON     CLEAR     43  43 100 CALM      30.24F
TRI CITIES     CLOUDY    59  42  53 SW9       30.23S
MIDLAND        CLOUDY    47  45  90 CALM      30.22R
TROY           CLOUDY    57  44  61 CALM      30.27R
SAGINAW HB     CLOUDY    55  41  58 S7        30.22S
$$
MIZ043>046-050>051-056>058-064>065-071>073-077>080-241000-
SOUTHWEST LOWER MICHIGAN

CITY           SKY/WX    TMP DP  RH WIND       PRES   REMARKS
BATTLE CREEK   CLEAR     53  46  77 CALM      30.25R
BENTON HARBOR  PTCLDY    51  46  83 CALM      30.22R
BIG RAPIDS     PTCLDY    50  44  81 CALM      30.22R
COLDWATER      CLEAR     51  48  88 CALM      30.25S
FREMONT        FAIR      52  44  75 CALM      30.21R
HOLLAND        CLEAR     57  45  64 S3        30.23R
GRAND RAPIDS   CLEAR     56  46  69 CALM      30.23R
IONIA          FAIR      60  45  55 S5        30.22R
KALAMAZOO      CLEAR     58  48  69 S5        30.24R
LUDINGTON      PTCLDY    51  45  79 CALM      30.21R
MARSHALL       CLEAR     53  47  80 CALM      30.24S
MOUNT PLEASANT PTCLDY    50  46  87 CALM      30.22R
MUSKEGON       CLEAR     51  45  79 CALM      30.22R
SOUTH HAVEN    CLEAR     51  47  84 CALM      30.23R
$$
MIZ016>042-241000-
NORTHERN LOWER MICHIGAN

CITY           SKY/WX    TMP DP  RH WIND       PRES   REMARKS
ALPENA         CLEAR     49  39  68 SW3       30.18S
BEAVER ISLAND  PTCLDY    54  36  51 SW13      30.18R
BELLAIRE       CLOUDY    46  43  90 CALM      30.20R
CADILLAC       CLOUDY    49  42  78 CALM      30.22R
CHARLEVOIX     PTCLDY    53  43  69 N3        30.22R
FRANKFORT      CLOUDY    59  42  53 CALM      30.19S
GAYLORD        PTCLDY    54  36  50 W3        30.21R
HARBOR SPRINGS PTCLDY    50  40  67 CALM      30.19R
HOUGHTON LAKE  PTCLDY    44  42  93 CALM      30.23R
MANISTEE       CLOUDY    48  41  76 CALM      30.21R
OSCODA         CLEAR     50  41  70 S3        30.20R
PELLSTON       CLEAR     61  38  42 W5        30.18R
ROGERS CITY    CLEAR     52  40  64 CALM      30.18R
TRAVERSE CITY  MOCLDY    59  41  51 CALM      30.19R
$$
MIZ007>008-015-241000-
EASTERN UPPER MICHIGAN

CITY           SKY/WX    TMP DP  RH WIND       PRES   REMARKS
KINROSS        CLEAR     52  37  58 SW6       30.15R
MACKINAC ISLAN CLEAR     54  39  57 W10G17    30.17R
NEWBERRY       CLEAR     44  39  81 SW6       30.15R
S. S. MARIE    PTCLDY    47  36  65 CALM      30.15R
$$
MIZ004>006-011>014-085-241000-
CENTRAL UPPER MICHIGAN

CITY           SKY/WX    TMP DP  RH WIND       PRES   REMARKS
MANISTIQUE     PTCLDY    49  43  77 CALM      30.15S
ESCANABA       CLOUDY    57  43  58 CALM      30.15S
MENOMINEE      CLOUDY    57  45  62 CALM      30.17S
SAWYER-GWINN   PTCLDY    48  37  66 CALM      30.16S
$$
MIZ001>003-009>011-084-241000-
WESTERN UPPER MICHIGAN

CITY           SKY/WX    TMP DP  RH WIND       PRES   REMARKS
IRON MOUNTAIN  CLOUDY    57  46  66 CALM      30.17R
HOUGHTON       CLEAR     57  41  55 W12       30.12S
COPPER HARBOR    N/A     66  41  40 W8G18     30.08S
IRONWOOD       MOCLDY    45  43  93 CALM      30.14S
$$

ABBREVIATIONS USED IN REMARKS
   TC - TEMPERATURE IN CELSIUS
  WCI - WIND CHILL INDEX
   HX - HEAT INDEX
  VSB - VISIBILITY




USA.gov is the U.S. government's official web portal to all federal, state and local government web resources and services.